STATION HISTORICAL DATA FROM WUNDERGROUND.COM FOR HIGH PARK VILLAGE,TORONTO,ON,CANADA
 
Daily Summary for November 12, 2019 Units:  Metric    English   Both
Next Day »
Daily Weekly Monthly Yearly Custom
  Current: High: Low: Average:
Temperature: -6.4 °C -3.6 °C -8.6 °C -6.7 °C
Dew Point: -15.1 °C -7.8 °C -15.6 °C -10.5 °C
Humidity: 50% 90% 47% 75%
Wind Speed: 18.5km/h 27.8km/h 3.7km/h 13.8km/h
Wind Gust: 8.4km/h 14km/h - -
WindNW - - NW
Pressure: 1022.2 hPa 1022.2 hPa 1016.1 hPa -
Precipitation: 0 mm      
Historical Graphs
 
 
Tabular Data for November 12, 2019
Time Temperature Dew Point Pressure Wind Wind Speed Wind Gust Humidity Rainfall Rate (Hourly) Solar Conditions
00:00 -6.4 °C -7.8 °C 1016.5 hPa NW 9.3 km/h   90% 0 mm 0.00 W/m2 RA
00:05 -6.4 °C -7.9 °C 1016.5 hPa West 9.3 km/h 0.6 km/h 89% 0 mm 0.00 W/m2 RA
00:10 -6.4 °C -7.8 °C 1016.5 hPa NW 9.3 km/h 1.4 km/h 90% 0 mm 0.00 W/m2 CLR
00:15 -6.5 °C -7.8 °C 1016.5 hPa NNE 3.7 km/h 1 km/h 90% 0 mm 0.00 W/m2 CLR
00:20 -6.5 °C -7.8 °C 1016.5 hPa SW 3.7 km/h 1 km/h 90% 0 mm 0.00 W/m2 CLR
00:25 -6.5 °C -7.8 °C 1016.5 hPa SW 9.3 km/h   90% 0 mm 0.00 W/m2 OVC
00:30 -6.6 °C -7.9 °C 1016.5 hPa WNW 9.3 km/h 1.8 km/h 90% 0 mm 0.00 W/m2 CLR
00:35 -6.7 °C -8 °C 1016.5 hPa NW 7.4 km/h 3.7 km/h 90% 0 mm 0.00 W/m2 OVC
00:40 -6.7 °C -8.1 °C 1016.5 hPa South 9.3 km/h 2.1 km/h 90% 0 mm 0.00 W/m2 CLR
00:45 -6.7 °C -8.1 °C 1016.1 hPa East 9.3 km/h 1.3 km/h 90% 0 mm 0.00 W/m2 OVC
00:50 -6.8 °C -8.1 °C 1016.1 hPa WSW 9.3 km/h 4.3 km/h 90% 0 mm 0.00 W/m2 OVC
00:55 -6.8 °C -8.2 °C 1016.5 hPa WSW 9.3 km/h 1.9 km/h 90% 0 mm 0.00 W/m2 CLR
01:00 -6.8 °C -8.2 °C 1016.1 hPa SW 9.3 km/h 1 km/h 90% 0 mm 0.00 W/m2 OVC
01:05 -6.8 °C -8.2 °C 1016.5 hPa NW 9.3 km/h 2.3 km/h 90% 0 mm 0.00 W/m2 OVC
01:10 -6.8 °C -8.3 °C 1016.5 hPa NW 5.6 km/h 0.8 km/h 89% 0 mm 0.00 W/m2 CLR
01:15 -6.8 °C -8.1 °C 1016.5 hPa SW 5.6 km/h 0.3 km/h 90% 0 mm 0.00 W/m2 OVC
01:20 -6.7 °C -8.2 °C 1016.5 hPa NNW 3.7 km/h 1.8 km/h 89% 0 mm 0.00 W/m2 CLR
01:25 -6.7 °C -8.2 °C 1016.5 hPa NW 7.4 km/h 0.6 km/h 89% 0 mm 0.00 W/m2 CLR
01:30 -6.7 °C -8.2 °C 1016.1 hPa NW 7.4 km/h 1.4 km/h 89% 0 mm 0.00 W/m2 OVC
01:35 -6.6 °C -8.1 °C 1016.5 hPa NNW 3.7 km/h 0.6 km/h 89% 0 mm 0.00 W/m2 CLR
01:40 -6.6 °C -8.1 °C 1016.1 hPa WNW 5.6 km/h 0.6 km/h 89% 0 mm 0.00 W/m2 CLR
01:45 -6.6 °C -8.1 °C 1016.1 hPa NW 5.6 km/h 1.9 km/h 89% 0 mm 0.00 W/m2 CLR
01:50 -6.6 °C -8.1 °C 1016.1 hPa West 5.6 km/h   89% 0 mm 0.00 W/m2 OVC
01:55 -6.5 °C -8.1 °C 1016.1 hPa West 5.6 km/h 1 km/h 88% 0 mm 0.00 W/m2 CLR
02:00 -6.5 °C -8.1 °C 1016.1 hPa NW 5.6 km/h 1.8 km/h 88% 0 mm 0.00 W/m2 OVC
02:05 -6.5 °C -8.1 °C 1016.5 hPa WNW 9.3 km/h 1.4 km/h 88% 0 mm 0.00 W/m2 OVC
02:10 -6.5 °C -8.1 °C 1016.1 hPa WNW 9.3 km/h 1.9 km/h 88% 0 mm 0.00 W/m2 CLR
02:15 -6.4 °C -8.2 °C 1016.1 hPa West 5.6 km/h 2.6 km/h 87% 0 mm 0.00 W/m2 CLR
02:20 -6.4 °C -8.2 °C 1016.1 hPa SW 7.4 km/h 0.6 km/h 87% 0 mm 0.00 W/m2 CLR
02:25 -6.4 °C -8.2 °C 1016.5 hPa NW 7.4 km/h 1.9 km/h 87% 0 mm 0.00 W/m2 CLR
02:30 -6.4 °C -8.4 °C 1016.5 hPa WNW 9.3 km/h 4.3 km/h 86% 0 mm 0.00 W/m2 OVC
02:35 -6.5 °C -8.4 °C 1016.5 hPa NW 9.3 km/h 3.7 km/h 86% 0 mm 0.00 W/m2 CLR
02:40 -6.5 °C -8.4 °C 1016.5 hPa South 9.3 km/h 3.2 km/h 86% 0 mm 0.00 W/m2 OVC
02:45 -6.4 °C -8.6 °C 1016.5 hPa NW 9.3 km/h 0.6 km/h 85% 0 mm 0.00 W/m2 OVC
02:50 -6.5 °C -8.6 °C 1016.5 hPa WNW 9.3 km/h 2.3 km/h 85% 0 mm 0.00 W/m2 OVC
02:55 -6.4 °C -8.6 °C 1016.5 hPa WSW 7.4 km/h 1 km/h 85% 0 mm 0.00 W/m2 CLR
03:00 -6.4 °C -8.7 °C 1016.5 hPa WSW 7.4 km/h 4.2 km/h 84% 0 mm 0.00 W/m2 OVC
03:05 -6.5 °C -8.7 °C 1016.5 hPa NW 7.4 km/h 2.1 km/h 84% 0 mm 0.00 W/m2 CLR
03:10 -6.6 °C -8.6 °C 1016.5 hPa NW 7.4 km/h 3.2 km/h 85% 0 mm 0.00 W/m2 OVC
03:15 -6.6 °C -8.7 °C 1016.5 hPa NW 7.4 km/h 3.4 km/h 85% 0 mm 0.00 W/m2 OVC
03:20 -6.6 °C -8.7 °C 1016.8 hPa NNW 7.4 km/h 2.9 km/h 85% 0 mm 0.00 W/m2 OVC
03:25 -6.7 °C -8.7 °C 1016.5 hPa NNW 7.4 km/h 3.4 km/h 85% 0 mm 0.00 W/m2 CLR
03:30 -6.7 °C -8.6 °C 1016.5 hPa NW 7.4 km/h 3.4 km/h 86% 0 mm 0.00 W/m2 OVC
03:35 -6.7 °C -8.6 °C 1016.5 hPa NNW 7.4 km/h 3.2 km/h 86% 0 mm 0.00 W/m2 CLR
03:40 -6.7 °C -8.7 °C 1016.5 hPa NW 7.4 km/h 3.5 km/h 86% 0 mm 0.00 W/m2 CLR
03:45 -6.7 °C -8.7 °C 1016.5 hPa NNW 7.4 km/h 3.9 km/h 86% 0 mm 0.00 W/m2 CLR
03:50 -6.8 °C -8.8 °C 1016.5 hPa NNW 7.4 km/h 4.8 km/h 86% 0 mm 0.00 W/m2 OVC
03:55 -6.8 °C -8.7 °C 1016.8 hPa NNW 7.4 km/h 5.3 km/h 86% 0 mm 0.00 W/m2 CLR
04:00 -6.8 °C -8.8 °C 1016.8 hPa NNW 9.3 km/h 5.1 km/h 86% 0 mm 0.00 W/m2 OVC
04:05 -6.9 °C -8.9 °C 1016.8 hPa NNW 14.8 km/h 6.1 km/h 85% 0 mm 0.00 W/m2 CLR
04:10 -6.9 °C -9 °C 1016.8 hPa NNW 14.8 km/h 6.9 km/h 85% 0 mm 0.00 W/m2 CLR
04:15 -6.9 °C -9 °C 1016.8 hPa NW 11.1 km/h 5.8 km/h 85% 0 mm 0.00 W/m2 OVC
04:20 -6.9 °C -9 °C 1016.8 hPa NNW 16.7 km/h 6.3 km/h 85% 0 mm 0.00 W/m2 CLR
04:25 -6.9 °C -9.2 °C 1016.8 hPa NNW 16.7 km/h 6.4 km/h 84% 0 mm 0.00 W/m2 OVC
04:30 -6.9 °C -9.1 °C 1016.8 hPa NNW 11.1 km/h 5.8 km/h 84% 0 mm 0.00 W/m2 OVC
04:35 -6.9 °C -9.1 °C 1017.2 hPa NW 11.1 km/h 4.8 km/h 84% 0 mm 0.00 W/m2 CLR
04:40 -6.9 °C -9.1 °C 1017.2 hPa NNW 7.4 km/h 3.9 km/h 84% 0 mm 0.00 W/m2 CLR
04:45 -6.9 °C -9.1 °C 1017.2 hPa NNW 11.1 km/h 4 km/h 84% 0 mm 0.00 W/m2 OVC
04:50 -6.9 °C -9.2 °C 1017.2 hPa NNW 11.1 km/h 5.6 km/h 84% 0 mm 0.00 W/m2 OVC
04:55 -6.9 °C -9.2 °C 1017.2 hPa NNW 9.3 km/h 5.3 km/h 84% 0 mm 0.00 W/m2 OVC
05:00 -6.9 °C -9.2 °C 1017.5 hPa NW 9.3 km/h 3.7 km/h 84% 0 mm 0.00 W/m2 OVC
05:05 -7 °C -9.4 °C 1017.5 hPa NNW 7.4 km/h 3.7 km/h 83% 0 mm 0.00 W/m2 CLR
05:10 -7 °C -9.4 °C 1017.2 hPa NNW 14.8 km/h 5.6 km/h 83% 0 mm 0.00 W/m2 CLR
05:15 -7.1 °C -9.4 °C 1017.2 hPa NNW 14.8 km/h 6.4 km/h 83% 0 mm 0.00 W/m2 OVC
05:20 -7.1 °C -9.5 °C 1017.2 hPa NNW 14.8 km/h 5.8 km/h 83% 0 mm 0.00 W/m2 CLR
05:25 -7.1 °C -9.5 °C 1017.5 hPa NNW 14.8 km/h 5.8 km/h 83% 0 mm 0.00 W/m2 OVC
05:30 -7.2 °C -9.6 °C 1017.5 hPa NW 11.1 km/h 5.6 km/h 83% 0 mm 0.00 W/m2 OVC
05:35 -7.2 °C -9.6 °C 1017.5 hPa NNW 7.4 km/h 5.1 km/h 83% 0 mm 0.00 W/m2 CLR
05:40 -7.2 °C -9.6 °C 1017.5 hPa NNW 7.4 km/h 4.7 km/h 83% 0 mm 0.00 W/m2 CLR
05:45 -7.2 °C -9.6 °C 1017.5 hPa NNW 11.1 km/h 4.7 km/h 83% 0 mm 0.00 W/m2 OVC
05:50 -7.2 °C -9.6 °C 1017.5 hPa North 11.1 km/h 4.2 km/h 83% 0 mm 0.00 W/m2 OVC
05:55 -7.2 °C -9.6 °C 1017.5 hPa North 11.1 km/h 4.5 km/h 83% 0 mm 0.00 W/m2 CLR
06:00 -7.3 °C -9.7 °C 1017.8 hPa NNW 16.7 km/h 5.3 km/h 83% 0 mm 0.00 W/m2 OVC
06:05 -7.4 °C -9.9 °C 1017.8 hPa NNW 16.7 km/h 6.6 km/h 82% 0 mm 0.00 W/m2 CLR
06:10 -7.4 °C -9.9 °C 1017.8 hPa North 14.8 km/h 6.3 km/h 82% 0 mm 0.00 W/m2 OVC
06:15 -7.5 °C -10 °C 1017.8 hPa NNW 14.8 km/h 6.4 km/h 82% 0 mm 0.00 W/m2 CLR
06:20 -7.5 °C -10 °C 1017.8 hPa NNW 11.1 km/h 6.3 km/h 82% 0 mm 0.00 W/m2 OVC
06:25 -7.6 °C -10.1 °C 1017.8 hPa NNW 11.1 km/h 6 km/h 82% 0 mm 0.00 W/m2 CLR
06:30 -7.6 °C -10.1 °C 1017.8 hPa NW 11.1 km/h 5.8 km/h 82% 0 mm 0.00 W/m2 CLR
06:35 -7.6 °C -10.1 °C 1017.8 hPa NNW 11.1 km/h 6 km/h 82% 0 mm 0.00 W/m2 OVC
06:40 -7.6 °C -10.1 °C 1018.2 hPa North 11.1 km/h 5.1 km/h 82% 0 mm 0.00 W/m2 OVC
06:45 -7.6 °C -10.1 °C 1017.8 hPa NNW 7.4 km/h 5 km/h 82% 0 mm 0.00 W/m2 CLR
06:50 -7.7 °C -10.2 °C 1018.2 hPa NNW 7.4 km/h 4.8 km/h 82% 0 mm 0.00 W/m2 OVC
06:55 -7.7 °C -10.2 °C 1017.8 hPa NW 16.7 km/h 5.3 km/h 82% 0 mm 0.00 W/m2 CLR
07:00 -7.8 °C -10.2 °C 1018.2 hPa NW 16.7 km/h 6.1 km/h 83% 0 mm 0.00 W/m2 OVC
07:05 -7.8 °C -10.3 °C 1018.2 hPa NW 11.1 km/h 5.6 km/h 82% 0 mm 0.00 W/m2 CLR
07:10 -7.8 °C -10.3 °C 1018.5 hPa NW 11.1 km/h 5.6 km/h 82% 0 mm 0.00 W/m2 OVC
07:15 -7.8 °C -10.3 °C 1018.5 hPa NNW 11.1 km/h 5.1 km/h 82% 0 mm 0.00 W/m2 CLR
07:20 -7.8 °C -10.3 °C 1018.5 hPa NNW 11.1 km/h 4.8 km/h 82% 0 mm 0.00 W/m2 OVC
07:25 -7.9 °C -10.4 °C 1018.5 hPa NNW 11.1 km/h 5.3 km/h 82% 0 mm 0.00 W/m2 CLR
07:30 -7.8 °C -10.3 °C 1018.8 hPa NNW 9.3 km/h 6.1 km/h 82% 0 mm 5.00 W/m2 CLR
07:35 -7.9 °C -10.6 °C 1018.8 hPa NW 11.1 km/h 6.3 km/h 81% 0 mm 7.00 W/m2 SCT
07:40 -8 °C -10.7 °C 1019.2 hPa NNW 11.1 km/h 6.3 km/h 81% 0 mm 7.00 W/m2 BKN
07:45 -8.1 °C -10.7 °C 1019.2 hPa NNW 14.8 km/h 6.9 km/h 81% 0 mm 11.00 W/m2 BKN
07:50 -8.1 °C -10.8 °C 1019.2 hPa NNW 14.8 km/h 7.4 km/h 81% 0 mm 12.00 W/m2 BKN
07:55 -8.1 °C -10.7 °C 1019.2 hPa NNW 11.1 km/h 7.2 km/h 81% 0 mm 14.00 W/m2 BKN
08:00 -8 °C -10.5 °C 1019.5 hPa NNW 9.3 km/h 6 km/h 82% 0 mm 16.00 W/m2 BKN
08:05 -8 °C -10.7 °C 1019.5 hPa NNW 9.3 km/h 4.5 km/h 81% 0 mm 18.00 W/m2 BKN
08:10 -7.9 °C -10.6 °C 1019.5 hPa NNW 18.5 km/h 4.5 km/h 81% 0 mm 19.00 W/m2 BKN
08:15 -8.1 °C -10.7 °C 1019.5 hPa North 18.5 km/h 6 km/h 81% 0 mm 21.00 W/m2 BKN
08:20 -8.1 °C -10.7 °C 1019.9 hPa North 18.5 km/h 6.9 km/h 81% 0 mm 23.00 W/m2 BKN
08:25 -8 °C -10.5 °C 1019.9 hPa NNW 11.1 km/h 4.8 km/h 82% 0 mm 25.00 W/m2 BKN
08:30 -8.1 °C -10.7 °C 1019.9 hPa NNW 11.1 km/h 5.6 km/h 81% 0 mm 28.00 W/m2 BKN
08:35 -8.1 °C -10.8 °C 1019.9 hPa NNW 14.8 km/h 6.3 km/h 81% 0 mm 33.00 W/m2 BKN
08:40 -8.1 °C -10.8 °C 1019.9 hPa NW 14.8 km/h 4.8 km/h 81% 0 mm 37.00 W/m2 BKN
08:45 -8.1 °C -10.8 °C 1019.9 hPa North 16.7 km/h 3.9 km/h 81% 0 mm 39.00 W/m2 BKN
08:50 -8.1 °C -10.8 °C 1019.9 hPa North 16.7 km/h 5 km/h 81% 0 mm 33.00 W/m2 BKN
08:55 -8.1 °C -10.9 °C 1020.2 hPa NNW 11.1 km/h 5.3 km/h 80% 0 mm 37.00 W/m2 BKN
09:00 -8.1 °C -11.1 °C 1020.2 hPa NW 9.3 km/h 5 km/h 79% 0 mm 28.00 W/m2 BKN
09:05 -8.1 °C -11.1 °C 1020.2 hPa NW 9.3 km/h 5.8 km/h 79% 0 mm 26.00 W/m2 BKN
09:10 -8.2 °C -11.3 °C 1020.2 hPa NNW 9.3 km/h 5.6 km/h 78% 0 mm 26.00 W/m2 BKN
09:15 -8.1 °C -11.2 °C 1020.5 hPa NNW 11.1 km/h 5.3 km/h 78% 0 mm 33.00 W/m2 BKN
09:20 -8.1 °C -11.4 °C 1020.5 hPa NNW 11.1 km/h 5.3 km/h 77% 0 mm 25.00 W/m2 BKN
09:25 -8.2 °C -11.6 °C 1020.5 hPa NNW 16.7 km/h 5.3 km/h 76% 0 mm 19.00 W/m2 BKN
09:30 -8.3 °C -11.9 °C 1020.5 hPa NNW 16.7 km/h 6.3 km/h 75% 0 mm 21.00 W/m2 BKN
09:35 -8.4 °C -12 °C 1020.5 hPa NNW 16.7 km/h 6.3 km/h 75% 0 mm 35.00 W/m2 BKN
09:40 -8.3 °C -11.7 °C 1020.5 hPa NW 11.1 km/h 5.1 km/h 76% 0 mm 37.00 W/m2 BKN
09:45 -8.3 °C -11.9 °C 1020.5 hPa NNW 18.5 km/h 6.3 km/h 75% 0 mm 37.00 W/m2 BKN
09:50 -8.3 °C -11.9 °C 1020.5 hPa North 18.5 km/h 7.4 km/h 75% 0 mm 32.00 W/m2 BKN
09:55 -8.4 °C -12.2 °C 1020.5 hPa NNE 16.7 km/h 8.7 km/h 74% 0 mm 35.00 W/m2 BKN
10:00 -8.6 °C -12.3 °C 1020.5 hPa North 16.7 km/h 9 km/h 74% 0 mm 33.00 W/m2 BKN
10:05 -8.5 °C -12.3 °C 1020.5 hPa NNW 16.7 km/h 8.9 km/h 74% 0 mm 42.00 W/m2 BKN
10:10 -8.4 °C -12.2 °C 1020.5 hPa NNW 16.7 km/h 8.7 km/h 74% 0 mm 42.00 W/m2 BKN
10:15 -8.3 °C -12.1 °C 1020.9 hPa NW 14.8 km/h 7.7 km/h 74% 0 mm 40.00 W/m2 BKN
10:20 -8.1 °C -11.7 °C 1020.5 hPa NW 14.8 km/h 6.6 km/h 75% 0 mm 44.00 W/m2 BKN
10:25 -7.9 °C -11.6 °C 1020.9 hPa NNW 11.1 km/h 5 km/h 75% 0 mm 53.00 W/m2 BKN
10:30 -7.9 °C -11.6 °C 1020.9 hPa NW 14.8 km/h 6.1 km/h 75% 0 mm 54.00 W/m2 BKN
10:35 -8 °C -11.8 °C 1020.5 hPa NW 14.8 km/h 7.1 km/h 74% 0 mm 47.00 W/m2 BKN
10:40 -8.1 °C -11.7 °C 1020.9 hPa NNW 14.8 km/h 7.1 km/h 75% 0 mm 46.00 W/m2 BKN
10:45 -7.9 °C -11.6 °C 1020.9 hPa NNW 18.5 km/h 8.4 km/h 75% 0 mm 49.00 W/m2 BKN
10:50 -7.9 °C -11.6 °C 1020.9 hPa NNW 18.5 km/h 9.7 km/h 75% 0 mm 51.00 W/m2 BKN
10:55 -7.9 °C -11.6 °C 1020.9 hPa NNW 16.7 km/h 9.3 km/h 75% 0 mm 49.00 W/m2 BKN
11:00 -7.8 °C -11.4 °C 1020.9 hPa NW 16.7 km/h 7.4 km/h 75% 0 mm 49.00 W/m2 BKN
11:05 -7.7 °C -11.3 °C 1020.9 hPa NNW 16.7 km/h 6 km/h 75% 0 mm 49.00 W/m2 BKN
11:10 -7.6 °C -11.2 °C 1020.5 hPa NW 14.8 km/h 5.6 km/h 75% 0 mm 53.00 W/m2 BKN
11:15 -7.6 °C -11.2 °C 1020.5 hPa NNW 14.8 km/h 6.4 km/h 75% 0 mm 58.00 W/m2 BKN
11:20 -7.4 °C -11.3 °C 1020.5 hPa NNW 14.8 km/h 8.2 km/h 74% 0 mm 53.00 W/m2 BKN
11:25 -7.4 °C -11.2 °C 1020.5 hPa NNW 18.5 km/h 8.9 km/h 74% 0 mm 155.00 W/m2 BKN
11:30 -7.3 °C -11.1 °C 1020.5 hPa NW 18.5 km/h 8.4 km/h 74% 0 mm 462.00 W/m2 CLR
11:35 -7.1 °C -10.9 °C 1020.5 hPa NNW 11.1 km/h 7.1 km/h 74% 0 mm 469.00 W/m2 CLR
11:40 -7 °C -11 °C 1020.5 hPa NNW 14.8 km/h 8.4 km/h 73% 0 mm 473.00 W/m2 CLR
11:45 -6.9 °C -10.9 °C 1020.5 hPa NNW 14.8 km/h 9.5 km/h 73% 0 mm 475.00 W/m2 CLR
11:50 -6.8 °C -10.8 °C 1020.5 hPa NNW 16.7 km/h 9.8 km/h 73% 0 mm 478.00 W/m2 CLR
11:55 -6.7 °C -10.8 °C 1020.5 hPa NNW 18.5 km/h 9.8 km/h 72% 0 mm 480.00 W/m2 CLR
12:00 -6.5 °C -10.9 °C 1020.5 hPa NW 18.5 km/h 9.8 km/h 71% 0 mm 482.00 W/m2 CLR
12:05 -6.3 °C -10.7 °C 1020.5 hPa NW 18.5 km/h 9.5 km/h 71% 0 mm 478.00 W/m2 CLR
12:10 -6.3 °C -10.9 °C 1020.5 hPa NNW 18.5 km/h 10.3 km/h 70% 0 mm 482.00 W/m2 CLR
12:15 -6.2 °C -11.1 °C 1020.5 hPa North 18.5 km/h 11.9 km/h 68% 0 mm 480.00 W/m2 CLR
12:20 -5.9 °C -10.9 °C 1020.5 hPa NNE 18.5 km/h 11.9 km/h 68% 0 mm 478.00 W/m2 CLR
12:25 -5.7 °C -11.1 °C 1020.5 hPa NNW 18.5 km/h 11.3 km/h 66% 0 mm 480.00 W/m2 CLR
12:30 -5.4 °C -10.8 °C 1020.5 hPa NNW 16.7 km/h 10.1 km/h 66% 0 mm 478.00 W/m2 CLR
12:35 -5.4 °C -11.1 °C 1020.5 hPa NNW 16.7 km/h 10 km/h 64% 0 mm 475.00 W/m2 CLR
12:40 -5.6 °C -11.4 °C 1020.5 hPa NW 27.8 km/h 11.6 km/h 63% 0 mm 473.00 W/m2 CLR
12:45 -5.6 °C -11.4 °C 1020.5 hPa NNW 27.8 km/h 13 km/h 63% 0 mm 469.00 W/m2 CLR
12:51 -5.3 °C -11.3 °C 1020.5 hPa NNW 20.4 km/h 12.4 km/h 63% 0 mm 462.00 W/m2 CLR
12:55 -5.2 °C -11.2 °C 1020.5 hPa NW 24.1 km/h 10.9 km/h 63% 0 mm 459.00 W/m2 CLR
13:00 -5 °C -10.9 °C 1020.5 hPa NW 24.1 km/h 9.5 km/h 63% 0 mm 455.00 W/m2 CLR
13:05 -5.1 °C -11.2 °C 1020.5 hPa NNW 18.5 km/h 10.6 km/h 62% 0 mm 452.00 W/m2 CLR
13:10 -5.1 °C -11 °C 1020.5 hPa North 18.5 km/h 10.6 km/h 63% 0 mm 445.00 W/m2 CLR
13:15 -4.3 °C -10.1 °C 1020.5 hPa NW 18.5 km/h 8.4 km/h 64% 0 mm 434.00 W/m2 CLR
13:20 -4.4 °C -10.8 °C 1020.5 hPa NW 14.8 km/h 6.3 km/h 61% 0 mm 436.00 W/m2 CLR
13:25 -4.1 °C -10.3 °C 1020.2 hPa North 13 km/h 5.3 km/h 62% 0 mm 424.00 W/m2 CLR
13:30 -4.2 °C -10.4 °C 1020.5 hPa NNW 13 km/h 5.6 km/h 62% 0 mm 420.00 W/m2 CLR
13:35 -4.2 °C -10.8 °C 1020.5 hPa NNW 16.7 km/h 6.6 km/h 60% 0 mm 415.00 W/m2 CLR
13:40 -4.1 °C -10.4 °C 1020.5 hPa NNW 16.7 km/h 7.7 km/h 61% 0 mm 410.00 W/m2 CLR
13:45 -3.6 °C -10 °C 1020.5 hPa NW 14.8 km/h 7.2 km/h 61% 0 mm 397.00 W/m2 CLR
13:50 -4.2 °C -10.3 °C 1020.5 hPa NW 14.8 km/h 7.2 km/h 62% 0 mm 399.00 W/m2 CLR
13:55 -4.2 °C -10.2 °C 1020.5 hPa North 14.8 km/h 7.9 km/h 63% 0 mm 383.00 W/m2 CLR
14:00 -4.4 °C -10.6 °C 1020.5 hPa North 18.5 km/h 9 km/h 62% 0 mm 376.00 W/m2 CLR
14:05 -4.2 °C -10.2 °C 1020.5 hPa NNW 18.5 km/h 9.3 km/h 63% 0 mm 369.00 W/m2 CLR
14:10 -3.9 °C -9.9 °C 1020.5 hPa NW 13 km/h 7.2 km/h 63% 0 mm 360.00 W/m2 CLR
14:15 -3.7 °C -9.5 °C 1020.5 hPa NNW 13 km/h 5.8 km/h 64% 0 mm 345.00 W/m2 CLR
14:20 -4 °C -10.2 °C 1020.5 hPa NNW 13 km/h 4.8 km/h 62% 0 mm 47.00 W/m2 BKN
14:25 -4.3 °C -10.3 °C 1020.5 hPa NNW 16.7 km/h 4 km/h 63% 0 mm 46.00 W/m2 BKN
14:30 -4.7 °C -10.9 °C 1020.9 hPa WNW 16.7 km/h 5.3 km/h 62% 0 mm 56.00 W/m2 BKN
14:35 -5 °C -11.3 °C 1020.9 hPa NNW 20.4 km/h 8.9 km/h 61% 0 mm 105.00 W/m2 BKN
14:40 -4.9 °C -10.9 °C 1020.9 hPa NNW 20.4 km/h 9.8 km/h 63% 0 mm 107.00 W/m2 BKN
14:45 -5.2 °C -10.8 °C 1021.2 hPa NNW 20.4 km/h 9.3 km/h 65% 0 mm 67.00 W/m2 BKN
14:50 -5.5 °C -10.4 °C 1020.9 hPa NNW 20.4 km/h 10.1 km/h 68% 0 mm 63.00 W/m2 BKN
14:55 -5.6 °C -11.1 °C 1021.2 hPa NNW 25.9 km/h 11.9 km/h 65% 0 mm 95.00 W/m2 SCT
15:00 -5.6 °C -12.1 °C 1021.2 hPa NNW 25.9 km/h 12.6 km/h 60% 0 mm 102.00 W/m2 BKN
15:05 -5.4 °C -12.6 °C 1021.2 hPa NNW 20.4 km/h 12.1 km/h 57% 0 mm 62.00 W/m2 BKN
15:10 -5.5 °C -13.6 °C 1021.2 hPa NNW 18.5 km/h 11.9 km/h 53% 0 mm 51.00 W/m2 BKN
15:15 -5.6 °C -14.1 °C 1021.2 hPa NW 25.9 km/h 12.4 km/h 51% 0 mm 40.00 W/m2 BKN
15:20 -5.6 °C -14.1 °C 1021.2 hPa NW 25.9 km/h 13.7 km/h 51% 0 mm 47.00 W/m2 BKN
15:25 -5.6 °C -14.6 °C 1021.6 hPa WNW 25.9 km/h 13.2 km/h 49% 0 mm 46.00 W/m2 BKN
15:30 -5.7 °C -14.9 °C 1021.6 hPa WNW 18.5 km/h 12.1 km/h 48% 0 mm 35.00 W/m2 BKN
15:35 -5.7 °C -15 °C 1021.6 hPa NNW 20.4 km/h 12.7 km/h 48% 0 mm 28.00 W/m2 BKN
15:40 -5.8 °C -15.3 °C 1021.2 hPa NW 24.1 km/h 13.5 km/h 47% 0 mm 26.00 W/m2 BKN
15:45 -5.9 °C -15.1 °C 1021.6 hPa NNW 24.1 km/h 14 km/h 48% 0 mm 26.00 W/m2 BKN
15:50 -5.9 °C -15.4 °C 1021.6 hPa WSW 25.9 km/h 11.9 km/h 47% 0 mm 26.00 W/m2 BKN
15:55 -5.9 °C -15.1 °C 1021.6 hPa WSW 25.9 km/h 10.9 km/h 48% 0 mm 23.00 W/m2 BKN
16:00 -5.9 °C -14.6 °C 1021.6 hPa WNW 25.9 km/h 9.3 km/h 50% 0 mm 23.00 W/m2 BKN
16:05 -5.9 °C -14.9 °C 1021.6 hPa WNW 18.5 km/h 8.4 km/h 49% 0 mm 21.00 W/m2 BKN
16:10 -5.9 °C -14.9 °C 1021.9 hPa NW 18.5 km/h 9.5 km/h 49% 0 mm 23.00 W/m2 BKN
16:15 -5.8 °C -15.1 °C 1021.9 hPa WNW 18.5 km/h 10.1 km/h 48% 0 mm 26.00 W/m2 BKN
16:20 -5.8 °C -14.8 °C 1021.9 hPa NW 16.7 km/h 9.7 km/h 49% 0 mm 18.00 W/m2 BKN
16:25 -5.9 °C -14.9 °C 1021.9 hPa NW 16.7 km/h 9 km/h 49% 0 mm 16.00 W/m2 BKN
16:30 -6.1 °C -15.6 °C 1021.9 hPa NW 20.4 km/h 10.8 km/h 47% 0 mm 14.00 W/m2 BKN
16:35 -6.1 °C -15.3 °C 1021.9 hPa NW 20.4 km/h 12.6 km/h 48% 0 mm 11.00 W/m2 BKN
16:40 -6.2 °C -14.9 °C 1021.9 hPa WNW 20.4 km/h 10.9 km/h 50% 0 mm 9.00 W/m2 BKN
16:45 -6.3 °C -15.3 °C 1021.9 hPa NW 16.7 km/h 8.7 km/h 49% 0 mm 7.00 W/m2 SCT
16:50 -6.4 °C -15.1 °C 1022.2 hPa NW 18.5 km/h 8.4 km/h 50% 0 mm 5.00 W/m2 CLR
High Park Village Arhives